Other Surface Observations
Issued by NWS

Home | Current Version | Previous Version | Text Only | Print | Product List | Glossary On
Versions: 1 2 3 4 5 6 7 8 9 10 11 12 13 14 15 16 17 18 19 20 21 22 23 24 25 26 27 28 29 30 31 32 33 34 35 36 37 38 39 40 41 42 43 44 45 46 47 48 49 50
933
SXUS52 KTAE 300606
OSOTAE
OSOTAE
North Florida/South Alabama/Southwest Georgia Weather Roundup
National Weather Service Tallahassee Florida
200 AM EDT THU MAR 30 2017

Note: "fair" indicates few or no clouds below 12,000 feet with no
significant weather and/or obstructions to visibility.

!FLZ017-115-028-034-025-300700
...North Florida...

CITY           SKY/WX    TMP DP  RH WIND       PRES   REMARKS
TALLAHASSEE    CLEAR     58  55  90 CALM      29.98S
APALACHICOLA   CLEAR     61  59  93 SE3       29.97S
PERRY          CLEAR     59  58  97 CALM      30.00S
CROSS CITY     CLEAR     55  54  94 CALM      29.99F
JACKSONVILLE   CLOUDY    69  65  86 CALM      30.00F
$$

!FLZ112-006-005-002-011-300700
...Florida Panhandle...

CITY           SKY/WX    TMP DP  RH WIND       PRES   REMARKS
MARIANNA       CLEAR     64  56  75 CALM      29.96F
BONIFAY        FAIR      59  58  96 CALM      29.97F
PANAMA CITY NW FAIR      59  56  89 CALM      29.95F
TYNDALL AFB    CLEAR     61  59  93 SE5       29.96F
TYND DRONE APT FAIR      61  59  93 CALM      29.96F
DE FUNIAK SPR  FAIR      61  59  93 S5        29.95F
EGLIN AFB      CLEAR     68  64  86 S8        29.95F
DESTIN         CLEAR     72  69  90 S7        29.94F
HURLBURT       CLEAR     69  66  90 SE10      29.93F
CRESTVIEW      FOG       58  58 100 CALM      29.95F VSB 1/4
PENSACOLA      PTCLDY    71  66  84 S9        29.94F
$$

!ALZ063-066-300700
...South Alabama...

CITY           SKY/WX    TMP DP  RH WIND       PRES   REMARKS
DOTHAN         CLOUDY    63  57  81 SE5       30.00F
OZARK CAIRNS   CLOUDY    61  56  83 CALM      29.95F
FT RUCKER HELI MOCLDY    58  56  92 CALM      29.95F
RUCKER HELI 3  FAIR      64  56  77 CALM      29.95F
RUCKER HELI 2  FAIR      62  56  81 CALM      29.95F
FLORALA APT    PTCLDY    64  58  80 S6        29.96F
ANDALUSIA      PTCLDY    62  58  86 CALM      29.94F
TROY           CLEAR     61  57  87 CALM      29.96F
EUFALA         FAIR      59  56  89 CALM      29.96F
MOBILE         CLOUDY    68  65  90 SE8       29.93F
$$

!GAZ120>161-300700
...Southwest and South Central Georgia...

CITY           SKY/WX    TMP DP  RH WIND       PRES   REMARKS
THOMASVILLE    FAIR      63  61  94 CALM      29.99F
BAINBRIDGE     CLEAR     63  55  77 CALM      29.97F
MOODY AFB      CLEAR     66  55  67 CALM      29.97F
VALDOSTA       CLEAR     59  55  87 CALM      29.99F
MOULTRIE       CLEAR     63  59  88 CALM      30.00S
BLAKELY        PTCLDY    61  57  88 CALM      29.98S
ALBANY         CLEAR     63  56  78 CALM      30.00S
TIFTON         FAIR      65  59  80 CALM      29.98F
FITZGERALD     FAIR      64  60  87 CALM      30.01S
CORDELE        FAIR      71  58  63 SW3       29.99S
AMERICUS       FAIR      64  54  68 SW3       30.00S
HOMERVILLE     FAIR      63  59  88 CALM      30.00F
$$

!GMZ750-755-770-775-300700
...Coastal and Buoy Obs...

STATION/POSITION TIME  TEMP    WIND        PRES    VSBY  WAVE
                       AIR SEA DIR/SP/G                  HT/PER
                 (UTC) (F)     (DEG/KT/KT) (MB)    (MI)  (FT/S)
KEATON BEACH     0600   64      50/  3/  3 1015.1F
CEDAR KEY        0500   71      CALM  /  1 1016.5F
C TOWER          0600   70     130/  8/  9 1015.4F
APALACHICOLA BUO 0450   71 71  100/  8/ 10 1015.6          1/ 5
PANAMA CITY BUOY 0450   72 72              1015.0          2/ 6
MOBILE BUOY      0550   73 73  150/ 17/ 21 1013.6F         5/ 6
ORANGE BCH AL BU 0450   72 72  140/ 14/ 16 1013.9          4/ 6
$$




USA.gov is the U.S. government's official web portal to all federal, state and local government web resources and services.